W0WC Weather Reports


time (UTC)temp
F
wind
direction
speed
knots
gust
knots
rain 1hr
in
rain 24hr
in
rain mn
in
humidity
%
barometer
mb
20260508234056 69 182 3.5 3.5 0.00 0.00 0.00 62 1007.5
20260508233555 69 71 1.7 2.6 0.00 0.00 0.00 63 1007.2
20260508233052 69 108 3.5 5.2 0.00 0.00 0.00 62 1007.1
20260508232549 69 176 3.5 5.2 0.00 0.00 0.00 63 1007.0
20260508232046 69 67 1.7 2.6 0.00 0.00 0.00 63 1007.0
20260508231544 69 183 3.5 5.2 0.00 0.00 0.00 63 1007.0
20260508231041 69 222 3.5 5.2 0.00 0.00 0.00 64 1007.6
20260508230537 69 152 3.5 3.5 0.00 0.00 0.00 64 1007.8
20260508230034 69 112 2.6 2.6 0.00 0.00 0.00 65 1007.9
20260508225531 69 168 1.7 2.6 0.00 0.00 0.00 66 1007.9
20260508225028 69 246 3.5 3.5 0.00 0.00 0.00 64 1008.0
20260508224526 69 176 3.5 3.5 0.00 0.00 0.00 65 1008.2
20260508224023 69 179 3.5 5.2 0.00 0.00 0.00 66 1008.2
20260508223521 69 193 2.6 3.5 0.00 0.00 0.00 65 1008.7
20260508223018 69 178 1.7 1.7 0.00 0.00 0.00 65 1008.9
20260508222515 69 255 1.7 1.7 0.00 0.00 0.00 65 1009.2
20260508222012 69 219 1.7 2.6 0.00 0.00 0.00 64 1009.0
20260508221508 69 276 2.6 2.6 0.00 0.00 0.00 62 1009.1
20260508221004 70 264 2.6 2.6 0.00 0.00 0.00 61 1009.3
20260508220500 70 335 1.7 2.6 0.00 0.00 0.00 61 1009.5
20260508215956 71 311 2.6 3.5 0.00 0.00 0.00 59 1009.4
20260508215454 72 98 3.5 3.5 0.00 0.00 0.00 58 1009.4
20260508214950 73 241 1.7 1.7 0.00 0.00 0.00 56 1009.6
20260508214448 73 336 1.7 1.7 0.00 0.00 0.00 53 1009.3
20260508213944 74 356 0.9 0.9 0.00 0.00 0.00 52 1009.0
20260508213442 74 26 0.0 0.0 0.00 0.00 0.00 51 1009.1
20260508212937 74 5 0.0 0.0 0.00 0.00 0.00 50 1009.0
20260508212434 74 6 0.0 0.9 0.00 0.00 0.00 49 1009.3
20260508211930 75 2 1.7 1.7 0.00 0.00 0.00 47 1009.2
20260508211425 75 301 2.6 3.5 0.00 0.00 0.00 45 1009.2
20260508210923 75 281 1.7 2.6 0.00 0.00 0.00 43 1009.1
20260508210419 75 186 4.3 6.1 0.00 0.00 0.00 43 1009.1
20260508205915 75 253 3.5 5.2 0.00 0.00 0.00 45 1008.9
20260508205413 75 200 7.0 8.7 0.00 0.00 0.00 43 1008.7
20260508204909 75 131 3.5 3.5 0.00 0.00 0.00 44 1009.0
20260508204407 76 165 1.7 2.6 0.00 0.00 0.00 44 1008.9
20260508203902 76 258 5.2 8.7 0.00 0.00 0.00 43 1009.1
20260508203358 77 24 1.7 2.6 0.00 0.00 0.00 42 1008.9
20260508202854 77 209 2.6 3.5 0.00 0.00 0.00 43 1009.1
20260508202351 77 213 4.3 6.1 0.00 0.00 0.00 42 1009.0
20260508201849 77 117 2.6 3.5 0.00 0.00 0.00 42 1009.2
20260508201345 77 203 2.6 2.6 0.00 0.00 0.00 41 1009.4
20260508200842 78 215 6.1 7.0 0.00 0.00 0.00 40 1009.3
20260508200339 79 171 5.2 7.0 0.00 0.00 0.00 38 1009.4
20260508195834 78 194 0.9 1.7 0.00 0.00 0.00 42 1009.2
20260508195331 79 194 4.3 6.1 0.00 0.00 0.00 40 1009.3
20260508194827 79 244 3.5 3.5 0.00 0.00 0.00 40 1009.6
20260508194325 79 141 5.2 7.0 0.00 0.00 0.00 38 1009.6
20260508193821 78 202 1.7 5.2 0.00 0.00 0.00 41 1009.6
20260508193319 78 217 5.2 8.7 0.00 0.00 0.00 40 1010.1
20260508192814 78 201 3.5 6.1 0.00 0.00 0.00 39 1009.7
20260508192312 78 210 5.2 7.0 0.00 0.00 0.00 40 1009.8
20260508191809 78 198 7.8 8.7 0.00 0.00 0.00 39 1009.8
20260508191306 77 241 3.5 5.2 0.00 0.00 0.00 40 1009.8
20260508190803 77 190 5.2 7.0 0.00 0.00 0.00 40 1010.0
20260508190259 77 266 4.3 7.0 0.00 0.00 0.00 41 1010.0
20260508185756 77 274 1.7 5.2 0.00 0.00 0.00 43 1010.1
20260508185253 77 213 1.7 2.6 0.00 0.00 0.00 42 1010.3
20260508184750 77 94 3.5 6.1 0.00 0.00 0.00 43 1010.4
20260508184248 77 35 2.6 5.2 0.00 0.00 0.00 42 1010.3
20260508183744 76 312 4.3 6.1 0.00 0.00 0.00 42 1010.3
20260508183241 76 226 4.3 6.1 0.00 0.00 0.00 43 1010.3
20260508182737 77 224 5.2 7.0 0.00 0.00 0.00 41 1010.4
20260508182234 77 195 5.2 7.0 0.00 0.00 0.00 41 1010.7
20260508181729 76 288 3.5 6.1 0.00 0.00 0.00 44 1010.6
20260508181227 76 225 8.7 11.3 0.00 0.00 0.00 42 1010.9
20260508180723 76 172 8.7 11.3 0.00 0.00 0.00 43 1011.0
20260508180220 76 271 5.2 7.8 0.00 0.00 0.00 44 1011.1
20260508175717 77 169 6.1 7.8 0.00 0.00 0.00 43 1011.0
20260508175213 76 204 6.1 7.0 0.00 0.00 0.00 43 1011.0
20260508174712 75 359 2.6 3.5 0.00 0.00 0.00 44 1011.0
20260508174208 75 212 3.5 5.2 0.00 0.00 0.00 44 1011.0
20260508173704 75 207 5.2 7.8 0.00 0.00 0.00 45 1010.9
20260508173200 75 181 7.0 7.8 0.00 0.00 0.00 44 1011.2
20260508172658 74 197 5.2 6.1 0.00 0.00 0.00 45 1011.3
20260508172155 74 204 4.3 5.2 0.00 0.00 0.00 46 1011.2
20260508171651 73 102 4.3 5.2 0.00 0.00 0.00 48 1011.3
20260508171147 74 208 8.7 9.6 0.00 0.00 0.00 46 1011.4
20260508170644 73 30 3.5 6.1 0.00 0.00 0.00 49 1011.7
20260508170142 72 167 1.7 3.5 0.00 0.00 0.00 50 1011.6
20260508165639 72 179 7.0 9.6 0.00 0.00 0.00 49 1011.9
20260508165136 72 193 6.1 7.8 0.00 0.00 0.00 50 1011.9
20260508164632 72 358 1.7 3.5 0.00 0.00 0.00 51 1012.0
20260508164129 72 219 4.3 8.7 0.00 0.00 0.00 52 1012.1
20260508163627 72 101 2.6 3.5 0.00 0.00 0.00 51 1012.1
20260508163124 71 196 3.5 3.5 0.00 0.00 0.00 54 1012.1
20260508162620 71 223 5.2 6.1 0.00 0.00 0.00 52 1012.3
20260508162118 71 146 6.1 7.8 0.00 0.00 0.00 54 1012.3
20260508161614 70 189 5.2 7.8 0.00 0.00 0.00 55 1012.7
20260508161112 70 181 8.7 12.2 0.00 0.00 0.00 54 1012.6
20260508160610 70 221 7.0 13.0 0.00 0.00 0.00 55 1012.5
20260508160107 69 174 7.0 13.9 0.00 0.00 0.00 56 1012.7
20260508155604 69 208 4.3 7.0 0.00 0.00 0.00 57 1012.8
20260508155101 69 210 5.2 7.0 0.00 0.00 0.00 57 1012.8
20260508154558 69 285 4.3 6.1 0.00 0.00 0.00 58 1013.1
20260508154055 68 203 2.6 3.5 0.00 0.00 0.00 60 1013.1
20260508153551 68 136 4.3 6.1 0.00 0.00 0.00 59 1013.1
20260508153047 67 113 5.2 7.0 0.00 0.00 0.00 61 1013.1
20260508152545 68 194 7.8 9.6 0.00 0.00 0.00 59 1013.2
20260508152040 67 184 2.6 3.5 0.00 0.00 0.00 61 1013.3
20260508151537 67 136 7.0 12.2 0.00 0.00 0.00 61 1013.3
20260508151034 67 126 5.2 7.8 0.00 0.00 0.00 59 1013.4
20260508150531 67 219 6.1 7.8 0.00 0.00 0.00 60 1013.3
20260508150027 67 199 5.2 6.1 0.00 0.00 0.00 60 1013.4
20260508145524 66 223 6.1 8.7 0.00 0.00 0.00 60 1013.5
20260508145020 66 210 7.0 8.7 0.00 0.00 0.00 61 1013.3
20260508144518 66 236 2.6 5.2 0.00 0.00 0.00 63 1013.3
20260508144015 65 208 4.3 6.1 0.00 0.00 0.00 63 1013.3
20260508143513 65 215 3.5 6.1 0.00 0.00 0.00 64 1013.3
20260508143009 65 142 6.1 9.6 0.00 0.00 0.00 63 1013.3
20260508142506 65 195 3.5 3.5 0.00 0.00 0.00 64 1013.5
20260508142003 64 2 3.5 6.1 0.00 0.00 0.00 65 1013.7
20260508141459 64 185 1.7 2.6 0.00 0.00 0.00 66 1013.8
20260508140957 64 190 2.6 3.5 0.00 0.00 0.00 66 1013.8
20260508140454 63 161 2.6 3.5 0.00 0.00 0.00 67 1013.7
20260508135949 62 253 3.5 5.2 0.00 0.00 0.00 68 1014.0
20260508135446 62 208 7.8 12.2 0.00 0.00 0.00 68 1014.2
20260508134942 62 245 5.2 7.0 0.00 0.00 0.00 69 1013.9
20260508134439 61 158 3.5 3.5 0.00 0.00 0.00 69 1014.1
20260508133936 61 273 5.2 8.7 0.00 0.00 0.00 69 1014.0
20260508133434 60 235 5.2 7.8 0.00 0.00 0.00 69 1014.1
20260508132930 60 220 7.0 7.8 0.00 0.00 0.00 69 1014.2
20260508132428 60 175 3.5 7.0 0.00 0.00 0.00 69 1014.1
20260508131925 60 111 7.0 8.7 0.00 0.00 0.00 69 1014.0
20260508131420 60 195 4.3 7.8 0.00 0.00 0.00 69 1014.1
20260508130917 59 42 3.5 6.1 0.00 0.00 0.00 70 1014.0
20260508130414 59 190 4.3 6.1 0.00 0.00 0.00 69 1013.8
20260508125910 59 189 2.6 3.5 0.00 0.00 0.00 69 1013.7
20260508125406 59 201 7.0 8.7 0.00 0.00 0.00 69 1013.9
20260508124904 59 180 7.0 7.8 0.00 0.00 0.00 69 1014.0
20260508124401 58 211 3.5 5.2 0.00 0.00 0.00 69 1013.8
20260508123859 58 197 2.6 3.5 0.00 0.00 0.00 69 1013.8
20260508123357 58 202 1.7 2.6 0.00 0.00 0.00 70 1013.7
20260508122853 57 192 3.5 5.2 0.00 0.00 0.00 70 1013.5
20260508122350 57 111 4.3 6.1 0.00 0.00 0.00 69 1013.4
20260508121848 57 201 8.7 12.2 0.00 0.00 0.00 69 1013.6
20260508121346 57 179 2.6 5.2 0.00 0.00 0.00 69 1013.4
20260508120843 57 168 0.9 1.7 0.00 0.00 0.00 68 1013.6
20260508120341 57 179 9.6 11.3 0.00 0.00 0.00 68 1013.7
20260508115838 57 204 5.2 7.0 0.00 0.00 0.00 67 1013.4
20260508115335 57 182 3.5 7.0 0.00 0.00 0.00 66 1013.5
20260508114832 57 172 5.2 7.0 0.00 0.00 0.00 66 1013.5
20260508114329 57 206 6.1 8.7 0.00 0.00 0.00 65 1013.1
20260508113826 57 202 3.5 5.2 0.00 0.00 0.00 64 1013.0
20260508113324 57 195 5.2 6.1 0.00 0.00 0.00 64 1013.0
20260508112820 57 93 4.3 5.2 0.00 0.00 0.00 63 1013.0
20260508112317 57 208 3.5 3.5 0.00 0.00 0.00 63 1012.7
20260508111813 57 186 4.3 7.0 0.00 0.00 0.00 63 1012.7
20260508111311 57 152 5.2 7.0 0.00 0.00 0.00 63 1012.8
20260508110808 57 192 6.1 7.8 0.00 0.00 0.00 63 1012.8
20260508110306 57 173 6.1 7.8 0.00 0.00 0.00 64 1012.7
20260508105805 57 178 4.3 6.1 0.00 0.00 0.00 64 1012.6
20260508105305 57 188 5.2 6.1 0.00 0.00 0.00 64 1012.6
20260508104759 57 161 5.2 6.1 0.00 0.00 0.00 64 1012.7
20260508104256 57 178 4.3 6.1 0.00 0.00 0.00 64 1012.5
20260508103753 57 193 5.2 6.1 0.00 0.00 0.00 63 1012.7
20260508103250 57 165 3.5 5.2 0.00 0.00 0.00 63 1012.6
20260508102747 57 70 5.2 6.1 0.00 0.00 0.00 63 1012.6
20260508102246 57 194 1.7 2.6 0.00 0.00 0.00 62 1012.6
20260508101742 57 207 3.5 5.2 0.00 0.00 0.00 62 1012.6
20260508101240 57 189 5.2 7.0 0.00 0.00 0.00 62 1012.6
20260508100738 58 175 5.2 7.0 0.00 0.00 0.00 61 1012.5
20260508100235 57 182 7.0 8.7 0.00 0.00 0.00 61 1012.5
20260508095731 57 150 3.5 3.5 0.00 0.00 0.00 61 1012.7
20260508095229 57 112 1.7 1.7 0.00 0.00 0.00 61 1012.7
20260508094725 58 154 2.6 3.5 0.00 0.00 0.00 61 1012.7
20260508094222 58 239 4.3 6.1 0.00 0.00 0.00 61 1012.6
20260508093720 58 213 4.3 6.1 0.00 0.00 0.00 60 1012.8
20260508093217 58 158 1.7 2.6 0.00 0.00 0.00 60 1012.7
20260508092714 58 140 1.7 2.6 0.00 0.00 0.00 60 1012.6
20260508092212 58 213 3.5 5.2 0.00 0.00 0.00 60 1012.6
20260508091710 58 231 3.5 5.2 0.00 0.00 0.00 60 1012.7
20260508091207 58 151 2.6 3.5 0.00 0.00 0.00 60 1012.5
20260508090704 58 184 5.2 7.0 0.00 0.00 0.00 60 1012.5
20260508090202 58 163 3.5 3.5 0.00 0.00 0.00 60 1012.6
20260508085657 58 150 3.5 3.5 0.00 0.00 0.00 60 1012.5
20260508085155 58 211 5.2 7.0 0.00 0.00 0.00 59 1012.6
20260508084651 58 142 1.7 2.6 0.00 0.00 0.00 59 1012.8
20260508084148 58 222 2.6 2.6 0.00 0.00 0.00 59 1012.8
20260508083646 58 190 5.2 7.8 0.00 0.00 0.00 59 1012.7
20260508083143 58 166 1.7 1.7 0.00 0.00 0.00 59 1012.7
20260508082638 58 180 1.7 2.6 0.00 0.00 0.00 60 1012.9
20260508082136 58 187 5.2 6.1 0.00 0.00 0.00 60 1013.0
20260508081633 58 184 2.6 2.6 0.00 0.00 0.00 60 1012.9
20260508081129 58 216 3.5 3.5 0.00 0.00 0.00 60 1013.0
20260508080627 58 181 5.2 7.0 0.00 0.00 0.00 60 1013.1
20260508080125 57 236 3.5 3.5 0.00 0.00 0.00 60 1013.1
20260508075621 57 138 2.6 3.5 0.00 0.00 0.00 61 1013.3
20260508075118 57 167 3.5 6.1 0.00 0.00 0.00 61 1013.1
20260508074616 57 191 5.2 7.8 0.00 0.00 0.00 61 1013.1
20260508074113 57 216 5.2 6.1 0.00 0.00 0.00 61 1013.2
20260508073610 57 200 3.5 3.5 0.00 0.00 0.00 61 1013.2
20260508073108 57 126 2.6 3.5 0.00 0.00 0.00 61 1013.3
20260508072603 57 188 4.3 6.1 0.00 0.00 0.00 61 1013.3
20260508072100 57 84 2.6 3.5 0.00 0.00 0.00 61 1013.5
20260508071558 57 162 3.5 3.5 0.00 0.00 0.00 61 1013.5
20260508071056 57 214 2.6 5.2 0.00 0.00 0.00 61 1013.5
20260508070553 57 195 3.5 3.5 0.00 0.00 0.00 61 1013.4
20260508070052 57 191 2.6 2.6 0.00 0.00 0.00 61 1013.5
20260508065549 57 191 1.7 1.7 0.00 0.00 0.00 62 1013.5
20260508065047 57 117 1.7 1.7 0.00 0.00 0.00 62 1013.7
20260508064544 57 131 2.6 3.5 0.00 0.00 0.00 62 1013.6
20260508064042 57 127 0.9 2.6 0.00 0.00 0.00 62 1013.7
20260508063539 57 136 5.2 7.0 0.00 0.00 0.00 63 1013.7
20260508063037 57 87 1.7 2.6 0.00 0.00 0.00 63 1013.6
20260508062534 57 153 3.5 3.5 0.00 0.00 0.00 63 1013.8
20260508062031 57 89 3.5 3.5 0.00 0.00 0.00 62 1013.8
20260508061529 57 181 2.6 3.5 0.00 0.00 0.00 62 1013.7
20260508061025 57 125 1.7 2.6 0.00 0.00 0.00 62 1013.7
20260508060522 57 51 2.6 3.5 0.00 0.00 0.00 62 1013.8
20260508060020 57 183 2.6 3.5 0.00 0.00 0.00 61 1013.8
20260508055515 58 206 4.3 5.2 0.00 0.00 0.00 61 1013.7
20260508055012 58 104 1.7 3.5 0.00 0.00 0.00 61 1013.7
20260508054509 58 95 1.7 2.6 0.00 0.00 0.00 60 1013.9
20260508054006 58 36 4.3 6.1 0.00 0.00 0.00 60 1013.8
20260508053502 58 54 0.9 1.7 0.00 0.00 0.00 60 1014.0
20260508053001 58 45 1.7 1.7 0.00 0.00 0.00 60 1014.0
20260508052458 58 200 1.7 1.7 0.00 0.00 0.00 59 1013.9
20260508051954 58 126 1.7 1.7 0.00 0.00 0.00 60 1014.1
20260508051449 58 198 1.7 1.7 0.00 0.00 0.00 60 1014.1
20260508050946 58 84 0.9 1.7 0.00 0.00 0.00 60 1014.0
20260508050442 58 180 3.5 3.5 0.00 0.00 0.00 60 1014.2
20260508045939 58 199 2.6 2.6 0.00 0.00 0.00 60 1014.2
20260508045436 58 43 0.9 1.7 0.00 0.00 0.00 60 1014.4
20260508044934 58 77 2.6 3.5 0.00 0.00 0.00 60 1014.1
20260508044431 58 55 1.7 1.7 0.00 0.00 0.00 61 1014.4
20260508043926 58 76 1.7 1.7 0.00 0.00 0.00 61 1014.4
20260508043424 58 53 0.9 1.7 0.00 0.00 0.00 61 1014.2
20260508042920 58 71 2.6 3.5 0.00 0.00 0.00 60 1014.5
20260508042418 58 187 1.7 2.6 0.00 0.00 0.00 60 1014.5
20260508041914 58 184 2.6 2.6 0.00 0.00 0.00 60 1014.6
20260508041411 59 45 0.9 1.7 0.00 0.00 0.00 60 1014.5
20260508040907 58 74 0.9 1.7 0.00 0.00 0.00 60 1014.7
20260508040405 58 169 2.6 2.6 0.00 0.00 0.00 60 1014.7
20260508035903 58 172 3.5 3.5 0.00 0.00 0.00 60 1014.6
20260508035359 59 193 1.7 1.7 0.00 0.00 0.00 60 1014.6
20260508034856 59 66 0.9 1.7 0.00 0.00 0.00 60 1015.0
20260508034354 59 64 0.9 1.7 0.00 0.00 0.00 60 1014.8
20260508033850 59 41 0.9 0.9 0.00 0.00 0.00 60 1014.9
20260508033348 59 106 1.7 2.6 0.00 0.00 0.00 59 1014.9
20260508032846 59 102 1.7 2.6 0.00 0.00 0.00 59 1014.9
20260508032343 59 196 1.7 3.5 0.00 0.00 0.00 58 1015.1
20260508031839 59 162 3.5 7.0 0.00 0.00 0.00 59 1015.0
20260508031336 59 67 0.9 1.7 0.00 0.00 0.00 59 1015.1
20260508030832 59 87 2.6 3.5 0.00 0.00 0.00 59 1015.0
20260508030330 60 62 0.9 0.9 0.00 0.00 0.00 58 1015.0
20260508025826 60 98 1.7 1.7 0.00 0.00 0.00 58 1015.2
20260508025324 60 176 1.7 1.7 0.00 0.00 0.00 58 1014.9
20260508024820 60 151 3.5 3.5 0.00 0.00 0.00 58 1015.0
20260508024317 60 158 1.7 2.6 0.00 0.00 0.00 58 1014.9
20260508023814 60 22 0.9 1.7 0.00 0.00 0.00 58 1014.9
20260508023310 60 31 0.0 0.9 0.00 0.00 0.00 58 1014.9
20260508022807 60 53 0.9 0.9 0.00 0.00 0.00 58 1015.0
20260508022306 60 55 1.7 2.6 0.00 0.00 0.00 58 1014.8
20260508021800 60 30 1.7 1.7 0.00 0.00 0.00 58 1014.8
20260508021256 60 85 0.9 0.9 0.00 0.00 0.00 58 1014.7
20260508020752 60 49 0.9 0.9 0.00 0.00 0.00 57 1014.5
20260508020251 61 42 0.0 0.0 0.00 0.00 0.00 57 1014.5
20260508015747 61 66 1.7 1.7 0.00 0.00 0.00 55 1014.4
20260508015244 61 292 0.9 1.7 0.00 0.00 0.00 55 1014.4
20260508014741 61 185 1.7 1.7 0.00 0.00 0.00 54 1014.2
20260508014238 62 14 0.9 1.7 0.00 0.00 0.00 54 1014.1
20260508013734 62 47 0.9 1.7 0.00 0.00 0.00 54 1014.1
20260508013230 62 55 0.0 0.9 0.00 0.00 0.00 54 1014.2
20260508012728 62 34 0.0 0.0 0.00 0.00 0.00 53 1014.1
20260508012225 63 289 1.7 2.6 0.00 0.00 0.00 52 1014.0
20260508011723 63 72 1.7 1.7 0.00 0.00 0.00 52 1014.0
20260508011220 64 210 1.7 1.7 0.00 0.00 0.00 51 1014.0
20260508010716 64 201 1.7 2.6 0.00 0.00 0.00 50 1013.9
20260508010215 64 193 1.7 2.6 0.00 0.00 0.00 49 1014.0
20260508005712 65 75 0.9 1.7 0.00 0.00 0.00 48 1013.8
20260508005208 65 134 1.7 2.6 0.00 0.00 0.00 48 1014.2
20260508004703 65 42 2.6 2.6 0.00 0.00 0.00 47 1014.0
20260508004200 65 25 0.9 1.7 0.00 0.00 0.00 46 1013.8
20260508003657 66 232 3.5 5.2 0.00 0.00 0.00 45 1014.1
20260508003154 66 143 3.5 5.2 0.00 0.00 0.00 44 1013.7
20260508002650 66 241 3.5 5.2 0.00 0.00 0.00 44 1013.9
20260508002149 67 182 0.9 1.7 0.00 0.00 0.00 44 1013.7
20260508001643 67 214 1.7 2.6 0.00 0.00 0.00 43 1014.0
20260508001140 67 299 0.9 1.7 0.00 0.00 0.00 44 1014.0
20260508000636 68 233 0.9 1.7 0.00 0.00 0.00 42 1013.9
20260508000133 68 232 3.5 5.2 0.00 0.00 0.00 42 1014.1
20260507235630 68 359 0.0 0.0 0.00 0.00 0.00 42 1013.9
20260507235128 68 29 0.9 1.7 0.00 0.00 0.00 43 1014.0
20260507234624 68 181 3.5 5.2 0.00 0.00 0.00 41 1013.8
20260507234120 68 359 0.9 1.7 0.00 0.00 0.00 42 1013.9